• In Belarus
  • List of Countries
  • For 7 days
  • Water Temperature
  • Satellite Maps
  • Weather Map
  • Weather Widgets
  • user-avatar
    Login

    Hourly Weather Lankaran

    Today, 24 August, Thursday

    Time Temperature Precipitation Wind Pressure Humidity
    00:00 +20°C° 0 mm 1 mps 633 mmHg 63%
    01:00 +18°C° 0 mm 2 mps 633 mmHg 65%
    02:00 +18°C° 0 mm 2 mps 634 mmHg 66%
    03:00 +18°C° 0 mm 2 mps 634 mmHg 68%
    04:00 +18°C° 0 mm 2 mps 634 mmHg 68%
    05:00 +18°C° 0 mm 2 mps 635 mmHg 68%
    06:00 +18°C° 0 mm 2 mps 635 mmHg 68%
    07:00 +21°C° 0 mm 3 mps 636 mmHg 57%
    08:00 +24°C° 0 mm 3 mps 637 mmHg 45%
    09:00 +26°C° 0 mm 4 mps 638 mmHg 33%
    10:00 +27°C° 0 mm 4 mps 638 mmHg 29%
    11:00 +28°C° 0 mm 5 mps 638 mmHg 25%
    12:00 +30°C° 0 mm 5 mps 638 mmHg 21%
    13:00 +29°C° 0 mm 5 mps 638 mmHg 21%
    14:00 +29°C° 0 mm 5 mps 638 mmHg 22%
    15:00 +29°C° 0 mm 5 mps 637 mmHg 22%
    16:00 +27°C° 0 mm 4 mps 637 mmHg 28%
    17:00 +25°C° 0 mm 3 mps 636 mmHg 35%
    18:00 +22°C° 0 mm 3 mps 636 mmHg 41%
    19:00 +21°C° 0 mm 2 mps 636 mmHg 48%
    20:00 +19°C° 0 mm 2 mps 636 mmHg 54%
    21:00 +18°C° 0 mm 2 mps 636 mmHg 61%
    22:00 +17°C° 0 mm 2 mps 636 mmHg 57%
    23:00 +18°C° 0 mm 1 mps 636 mmHg 54%

    Tomorrow, 25 August, Friday

    Time Temperature Precipitation Wind Pressure Humidity
    00:00 +18°C° 0 mm 1 mps 636 mmHg 50%
    01:00 +16°C° 0 mm 1 mps 636 mmHg 48%
    02:00 +16°C° 0 mm 1 mps 636 mmHg 46%
    03:00 +16°C° 0 mm 1 mps 636 mmHg 45%
    04:00 +16°C° 0 mm 2 mps 636 mmHg 44%
    05:00 +16°C° 0 mm 2 mps 636 mmHg 44%
    06:00 +17°C° 0 mm 2 mps 636 mmHg 43%
    07:00 +19°C° 0 mm 2 mps 637 mmHg 37%
    08:00 +22°C° 0 mm 3 mps 638 mmHg 30%
    09:00 +25°C° 0 mm 3 mps 639 mmHg 24%
    10:00 +26°C° 0 mm 3 mps 639 mmHg 23%
    11:00 +27°C° 0 mm 4 mps 639 mmHg 22%
    12:00 +28°C° 0 mm 4 mps 639 mmHg 21%
    13:00 +28°C° 0 mm 4 mps 638 mmHg 22%
    14:00 +28°C° 0 mm 4 mps 638 mmHg 24%
    15:00 +27°C° 0 mm 4 mps 637 mmHg 25%
    16:00 +26°C° 0 mm 4 mps 637 mmHg 33%
    17:00 +23°C° 0 mm 4 mps 636 mmHg 41%
    18:00 +21°C° 0 mm 3 mps 636 mmHg 49%
    19:00 +19°C° 0 mm 3 mps 636 mmHg 58%
    20:00 +18°C° 0 mm 3 mps 636 mmHg 67%
    21:00 +16°C° 0 mm 2 mps 636 mmHg 76%
    22:00 +16°C° 0 mm 2 mps 636 mmHg 76%
    23:00 +16°C° 0 mm 2 mps 636 mmHg 76%

    Day after tomorrow, 26 August, Saturday

    Time Temperature Precipitation Wind Pressure Humidity
    00:00 +15°C° 0 mm 2 mps 636 mmHg 76%
    01:00 +15°C° 0 mm 2 mps 636 mmHg 77%
    02:00 +15°C° 0 mm 2 mps 636 mmHg 77%
    03:00 +14°C° 0 mm 2 mps 636 mmHg 78%
    04:00 +15°C° 0 mm 2 mps 636 mmHg 78%
    05:00 +15°C° 0 mm 2 mps 636 mmHg 79%
    06:00 +15°C° 0 mm 2 mps 636 mmHg 80%
    07:00 +17°C° 0 mm 3 mps 637 mmHg 69%
    08:00 +19°C° 0 mm 3 mps 637 mmHg 58%
    09:00 +22°C° 0 mm 4 mps 638 mmHg 47%
    10:00 +23°C° 0 mm 4 mps 638 mmHg 44%
    11:00 +25°C° 0 mm 4 mps 638 mmHg 41%
    12:00 +26°C° 0 mm 4 mps 638 mmHg 39%
    13:00 +26°C° 0 mm 4 mps 637 mmHg 40%
    14:00 +25°C° 0 mm 4 mps 637 mmHg 42%
    15:00 +25°C° 0 mm 4 mps 636 mmHg 43%
    16:00 +23°C° 0 mm 4 mps 636 mmHg 51%
    17:00 +21°C° 0 mm 4 mps 636 mmHg 58%
    18:00 +19°C° 0 mm 3 mps 635 mmHg 66%
    19:00 +18°C° 0 mm 3 mps 635 mmHg 71%
    20:00 +17°C° 0 mm 2 mps 635 mmHg 77%
    21:00 +16°C° 0 mm 2 mps 635 mmHg 82%
    22:00 +15°C° 0 mm 2 mps 635 mmHg 82%
    23:00 +15°C° 0 mm 2 mps 635 mmHg 82%

    27 August, Sunday

    Time Temperature Precipitation Wind Pressure Humidity
    00:00 +15°C° 0 mm 2 mps 635 mmHg 82%
    01:00 +14°C° 0 mm 2 mps 635 mmHg 82%
    02:00 +14°C° 0 mm 2 mps 634 mmHg 82%
    03:00 +14°C° 0 mm 2 mps 634 mmHg 83%
    04:00 +14°C° 0 mm 2 mps 635 mmHg 83%
    05:00 +15°C° 0 mm 2 mps 635 mmHg 83%
    06:00 +15°C° 0 mm 2 mps 635 mmHg 83%
    07:00 +17°C° 0 mm 2 mps 636 mmHg 75%
    08:00 +19°C° 0 mm 3 mps 636 mmHg 66%
    09:00 +20°C° 0 mm 3 mps 637 mmHg 58%
    10:00 +21°C° 0 mm 3 mps 636 mmHg 54%
    11:00 +23°C° 0 mm 4 mps 636 mmHg 49%
    12:00 +25°C° 0 mm 4 mps 636 mmHg 45%
    13:00 +25°C° 0 mm 4 mps 636 mmHg 46%
    14:00 +25°C° 0 mm 4 mps 636 mmHg 47%
    15:00 +25°C° 0 mm 4 mps 635 mmHg 48%
    16:00 +22°C° 0 mm 3 mps 635 mmHg 55%
    17:00 +21°C° 0 mm 3 mps 635 mmHg 61%
    18:00 +19°C° 0 mm 3 mps 634 mmHg 68%
    19:00 +18°C° 0 mm 2 mps 634 mmHg 73%
    20:00 +17°C° 0 mm 2 mps 634 mmHg 78%
    21:00 +16°C° 0 mm 2 mps 634 mmHg 83%
    22:00 +16°C° 0 mm 2 mps 634 mmHg 82%
    23:00 +15°C° 0 mm 2 mps 634 mmHg 82%

    28 August, Monday

    Time Temperature Precipitation Wind Pressure Humidity
    00:00 +15°C° 0 mm 2 mps 634 mmHg 81%
    01:00 +15°C° 0 mm 2 mps 634 mmHg 80%
    02:00 +15°C° 0 mm 2 mps 634 mmHg 79%
    03:00 +14°C° 0 mm 2 mps 634 mmHg 78%
    04:00 +15°C° 0 mm 2 mps 634 mmHg 76%
    05:00 +15°C° 0 mm 2 mps 634 mmHg 74%
    06:00 +15°C° 0 mm 2 mps 635 mmHg 72%
    07:00 +17°C° 0 mm 2 mps 635 mmHg 63%
    08:00 +19°C° 0 mm 2 mps 636 mmHg 53%
    09:00 +22°C° 0 mm 3 mps 636 mmHg 44%
    10:00 +24°C° 0 mm 3 mps 636 mmHg 41%
    11:00 +25°C° 0 mm 3 mps 636 mmHg 38%
    12:00 +26°C° 0 mm 3 mps 636 mmHg 35%
    13:00 +26°C° 0 mm 3 mps 636 mmHg 36%
    14:00 +26°C° 0 mm 3 mps 635 mmHg 37%
    15:00 +26°C° 0 mm 3 mps 635 mmHg 37%
    16:00 +25°C° 0 mm 3 mps 634 mmHg 44%
    17:00 +22°C° 0 mm 3 mps 634 mmHg 51%
    18:00 +20°C° 0 mm 2 mps 634 mmHg 57%
    19:00 +19°C° 0 mm 2 mps 634 mmHg 63%
    20:00 +18°C° 0 mm 2 mps 634 mmHg 68%
    21:00 +18°C° 0 mm 1 mps 634 mmHg 73%
    22:00 +16°C° 0 mm 1 mps 634 mmHg 72%
    23:00 +16°C° 0 mm 1 mps 633 mmHg 70%

    29 August, Tuesday

    Time Temperature Precipitation Wind Pressure Humidity
    00:00 +16°C° 0 mm 1 mps 633 mmHg 69%
    01:00 +16°C° 0 mm 1 mps 633 mmHg 68%
    02:00 +16°C° 0 mm 1 mps 633 mmHg 66%
    03:00 +15°C° 0 mm 1 mps 633 mmHg 65%
    04:00 +16°C° 0 mm 1 mps 633 mmHg 63%
    05:00 +16°C° 0 mm 1 mps 633 mmHg 61%
    06:00 +16°C° 0 mm 1 mps 633 mmHg 59%
    07:00 +20°C° 0 mm 1 mps 634 mmHg 51%
    08:00 +21°C° 0 mm 2 mps 635 mmHg 43%
    09:00 +25°C° 0 mm 2 mps 635 mmHg 36%
    10:00 +26°C° 0 mm 2 mps 635 mmHg 33%
    11:00 +27°C° 0 mm 3 mps 635 mmHg 30%
    12:00 +29°C° 0 mm 3 mps 635 mmHg 27%
    13:00 +29°C° 0 mm 3 mps 634 mmHg 28%
    14:00 +29°C° 0 mm 3 mps 634 mmHg 29%
    15:00 +29°C° 0 mm 3 mps 634 mmHg 29%
    16:00 +27°C° 0 mm 3 mps 633 mmHg 37%
    17:00 +26°C° 0 mm 2 mps 632 mmHg 46%
    18:00 +24°C° 0 mm 2 mps 632 mmHg 54%
    19:00 +23°C° 0 mm 2 mps 632 mmHg 60%
    20:00 +21°C° 0 mm 1 mps 632 mmHg 65%
    21:00 +20°C° 0 mm 1 mps 632 mmHg 71%
    22:00 +20°C° 0 mm 1 mps 631 mmHg 69%
    23:00 +20°C° 0 mm 1 mps 631 mmHg 67%
    Show more